This is the latest recevied weather packets stored in our database for station/object W6SNO-1. If no packets are shown the sender has not sent any weather packets the latest 10 day(s).
| Time | Temp. | Humidity | Pressure | Rain* | Wind** | Luminosity | Snow |
|---|---|---|---|---|---|---|---|
| 1777606387 | 15° C | 80% | 1014.3 hPa | 0 mm | - | 0 W/m² | - |
| 1777606081 | 15° C | 80% | 1014.2 hPa | 0 mm | - | 0 W/m² | - |
| 1777605778 | 15° C | 78% | 1014 hPa | 0 mm | - | 0 W/m² | - |
| 1777605476 | 15° C | 78% | 1014.4 hPa | 0 mm | - | 0 W/m² | - |
| 1777605174 | 15.56° C | 77% | 1014.1 hPa | 0 mm | - | 0 W/m² | - |
| 1777604869 | 15.56° C | 77% | 1014 hPa | 0 mm | - | 1 W/m² | - |
| 1777604565 | 15.56° C | 76% | 1013.9 hPa | 0 mm | - | 1 W/m² | - |
| 1777604261 | 16.11° C | 75% | 1013.9 hPa | 0 mm | - | 4 W/m² | - |
| 1777603957 | 16.11° C | 74% | 1013.8 hPa | 0 mm | - | 7 W/m² | - |
| 1777603654 | 16.11° C | 74% | 1013.8 hPa | 0 mm | - | 7 W/m² | - |
| 1777603350 | 16.67° C | 73% | 1013.6 hPa | 0 mm | - | 11 W/m² | - |
| 1777603046 | 17.22° C | 72% | 1013.9 hPa | 0 mm | - | 14 W/m² | - |
| 1777602741 | 17.22° C | 71% | 1013.6 hPa | 0 mm | - | 17 W/m² | - |
| 1777602436 | 17.22° C | 71% | 1013.6 hPa | 0 mm | - | 19 W/m² | - |
| 1777602133 | 17.22° C | 70% | 1013.6 hPa | 0 mm | - | 22 W/m² | - |
| 1777601828 | 17.78° C | 69% | 1013.6 hPa | 0 mm | - | 25 W/m² | - |
| 1777601524 | 17.78° C | 68% | 1013.5 hPa | 0 mm | - | 27 W/m² | - |
| 1777601219 | 18.33° C | 68% | 1013.3 hPa | 0 mm | - | 31 W/m² | - |
| 1777600917 | 18.33° C | 67% | 1013.3 hPa | 0 mm | - | 38 W/m² | - |
| 1777600611 | 18.33° C | 67% | 1013.8 hPa | 0 mm | - | 45 W/m² | - |
| 1777600308 | 19.44° C | 65% | 1013.6 hPa | 0 mm | - | 58 W/m² | - |
| 1777600004 | 19.44° C | 65% | 1013.2 hPa | 0 mm | - | 57 W/m² | - |
| 1777599700 | 18.89° C | 65% | 1013.3 hPa | 0 mm | - | 65 W/m² | - |
| 1777599396 | 20° C | 63% | 1013.3 hPa | 0 mm | - | 73 W/m² | - |
| 1777599094 | 20° C | 62% | 1013.3 hPa | 0 mm | - | 96 W/m² | - |
* Rain latest hour (hover to see other rain measurements)
** Current wind speed in m/s (hover to see current wind gust speed)